Flag for U.S.A. Weather past 2 weeks in Portsmouth, Virginia, U.S.A.

Now
40 °F

Cloudy.


Feels Like: 34 °F
Forecast: 32 / 42 °F
Wind: 9 mph from North

Location: Norfolk Naval Air Station

Current Time: Dec 20, 2014 at 9:41:24 AM

Latest Report: Dec 20, 2014 at 8:59 AM


Visibility: 10 mi

Pressure: 30.33 "Hg

Humidity: 65%

Dew point: 29 °F

Location of PortsmouthLocation

Historic Weather in Portsmouth — Graph

°F

Portsmouth temperature yesterday

Maximum temperature yesterday: 47 °F (at 1:59 PM)
Minimum temperature yesterday: 37 °F (at 5:59 AM)
Average temperature yesterday: 42 °F

Past Weeks' High & Low Weather Summary

 TemperatureHumidityPressure
High65 °F (Dec 16, 12:59 PM)90% (Dec 6, 6:59 PM)30.51 "Hg (Dec 6, 6:59 PM)
Low36 °F (Dec 12, 11:59 PM)29% (Dec 12, 1:59 PM)29.81 "Hg (Dec 10, 1:59 PM)
Average47 °F64%30.11 "Hg
* Reported Dec 5 7:59 AM — Dec 20 7:59 AM, Portsmouth, Weather by CustomWeather, © 2014

Note: Actual official high and low records may vary slightly from our data, if they occured in-between our weather recording intervals... More about our weather records

Advertising

Portsmouth weather history for previous 24 hours

 ConditionsComfort  
Time TempWeatherWind HumidityBarometerVisibility
7:59 AM
Dec 20
39 °FCloudy.7 mph67%30.30 "Hg10 mi
6:59 AM39 °FOvercast.10 mph67%30.30 "Hg10 mi
5:59 AM39 °FPassing clouds.8 mph67%30.28 "Hg10 mi
4:59 AM39 °FPassing clouds.9 mph65%30.26 "Hg10 mi
3:59 AM39 °FPassing clouds.7 mph65%30.27 "Hg10 mi
2:59 AM39 °FPassing clouds.8 mph65%30.27 "Hg10 mi
1:59 AM40 °FPassing clouds.10 mph60%30.25 "Hg10 mi
12:59 AM39 °FPassing clouds.8 mph62%30.25 "Hg10 mi
11:59 PM
Dec 19
41 °FPassing clouds.13 mph58%30.25 "Hg10 mi
10:59 PM41 °FPassing clouds.14 mph58%30.25 "Hg10 mi
9:59 PM41 °FPassing clouds.12 mph55%30.24 "Hg10 mi
8:59 PM41 °FPassing clouds.12 mph58%30.23 "Hg10 mi
7:59 PM42 °FPassing clouds.10 mph60%30.23 "Hg10 mi
6:59 PM41 °FPassing clouds.3 mph65%30.22 "Hg10 mi
5:59 PM42 °FPassing clouds.5 mph62%30.19 "Hg10 mi
4:59 PM42 °FPassing clouds.7 mph62%30.18 "Hg10 mi
3:59 PM45 °FPartly sunny.7 mph49%30.17 "Hg10 mi
2:59 PM46 °FScattered clouds.7 mph50%30.15 "Hg10 mi
1:59 PM47 °FPassing clouds.6 mph48%30.13 "Hg10 mi
12:59 PM46 °FPassing clouds.7 mph48%30.14 "Hg10 mi
11:59 AM45 °FPassing clouds.9 mph48%30.16 "Hg10 mi
10:59 AM44 °FSunny.14 mph49%30.18 "Hg10 mi
9:59 AM43 °FSunny.12 mph49%30.19 "Hg10 mi
Weather by CustomWeather, © 2014

See weather overviewHow to use our weather pages